星链-2343 (STARLINK-2343 )

导读 | 豆包AI

STARLINK-2343是美国太空探索技术公司(SpaceX)发射的星链卫星,属于Starlink星座计划中的一员,于2021年3月14日发射升空。星链计划旨在搭建全球卫星互联网星座,为全球提供高速互联网接入服务,该卫星的发射推进了星座组网进程。

基本信息
目录编号:
47884
目录名称:
STARLINK-2343
国际标识:
2021-021AA
轨道中心:
EARTH
卫星名称:
星链-2343
卫星全名:
星链-2343 (STARLINK-2343 )
卫星状态:
在轨 (已飞行1826 天)
发射日期:
2021-03-14 UTC
国别 :
美国 (US)
星等 :
--
轨道信息
数据来源 国际轨道数据
星历时间: 2026-03-14T08:00:02+0800
13小时前
查看轨道信息
半长轴: 6855.951km
偏心率: 0.000099
轨道倾角: 53.156°
近地点辐角 104.565°
升交点赤经 260.876°
平近点角 326.859°
近地点: 477.135km
远地点: 478.493km
周期: 94.159分钟
每日圈数: 15.293303
详细信息
固有亮度:
5
最大亮度:
2.5
卫星平台:
Starlink V1.0
覆盖范围:
全球
运营商:
太空探索技术公司
运营商所在国:
美国
制造商(研发单位):
太空探索技术公司
制造商所在国:
美国
使用方式:
暂无
卫星简介
星链(Starlink)计划是由太空探索技术公司(SpaceX)提出的一个巨型低轨卫星互联网星座项目,计划在2019年至2024年间在太空搭建由约1.2万颗卫星组成的“星链”网络,其中1584颗将部署在地球上空550千米处的近地轨道,并从2020年开始工作。该卫星仍在工作。
2D轨道图
3D轨道图
轨道高度分析图
轨道倾角分析图
轨道综合分析图
查看轨道综合分析图